Weather History for Muskogee, OK

Change the Weather History Date:

Tuesday, December 24, 2013

  Actual Average Record
Temperature  
Mean Temperature 30 °F -  
Max Temperature 44 °F 47 °F 53 °F (2007)
Min Temperature 17 °F 26 °F 10 °F (2004)
Degree Days  
Heating Degree Days 34    
Moisture  
Dew Point 22 °F    
Average Humidity 77    
Maximum Humidity 93    
Minimum Humidity 55    
Precipitation  
Precipitation 0.04 in - - ()
Sea Level Pressure  
Sea Level Pressure 30.45 in    
Wind  
Wind Speed 6 mph (SE)    
Max Wind Speed 14 mph    
Max Gust Speed 20 mph    
Visibility 8 miles    
Events      
Averages and records for this station are not official NWS values.
T = Trace of Precipitation, MM = Missing Value Source: NWS Daily Summary

Daily Weather History Graph

Daily Weather History Graph

Search for Another Location

Airport:

Trip Planner

Search our weather history database for the weather conditions in past years. The results will help you decide how hot, cold, wet, or windy it might be!

Date:

Astronomy

Dec. 24, 2013 Rise Set
Actual Time 7:28 AM CST 5:13 PM CST
Civil Twilight 7:00 AM CST 5:42 PM CST
Nautical Twilight 6:28 AM CST 6:14 PM CST
Astronomical Twilight 5:57 AM CST 6:45 PM CST
Moon No Moon Rise 11:36 AM CST (12/24)
Length of Visible Light 10h 41m
Length of Day
9h 44m
Waning Gibbous, 58% of the Moon is Illuminated
Dec 24
Waning Gibbous
Dec 25
Last Quarter
Jan 1
New
Jan 7
First Quarter
Jan 15
Full

Hourly Weather History & Observations

Time (CST) Temp. Windchill Dew Point Humidity Pressure Visibility Wind Dir Wind Speed Gust Speed Precip Events Conditions
12:53 AM 21.0 °F 14.6 °F 18.0 °F 88% 30.61 in 7.0 mi North 4.6 mph - N/A   Overcast
1:17 AM 21.2 °F 16.4 °F 17.6 °F 86% 30.59 in 7.0 mi NNW 3.5 mph - N/A   Overcast
1:53 AM 21.0 °F 13.4 °F 18.0 °F 88% 30.62 in 7.0 mi North 5.8 mph - N/A   Overcast
2:30 AM 19.4 °F 14.3 °F 17.6 °F 93% 30.60 in 7.0 mi North 3.5 mph - N/A   Scattered Clouds
2:53 AM 19.9 °F 12.1 °F 17.1 °F 89% 30.61 in 6.0 mi NNW 5.8 mph - N/A   Partly Cloudy
3:53 AM 19.0 °F 9.0 °F 17.1 °F 92% 30.59 in 6.0 mi NNE 8.1 mph - 0.01 in   Partly Cloudy
4:53 AM 18.0 °F - 15.1 °F 88% 30.59 in 8.0 mi Calm Calm - N/A   Clear
5:53 AM 18.0 °F 11.1 °F 15.1 °F 88% 30.58 in 7.0 mi NNE 4.6 mph - N/A   Clear
6:53 AM 17.1 °F - 14.0 °F 88% 30.57 in 7.0 mi Calm Calm - N/A   Clear
7:53 AM 18.0 °F - 15.1 °F 88% 30.56 in 5.0 mi Calm Calm - N/A   Clear
8:53 AM 21.0 °F 13.4 °F 18.0 °F 88% 30.56 in 4.0 mi South 5.8 mph - 0.01 in   Clear
9:53 AM 26.1 °F 16.2 °F 21.0 °F 81% 30.55 in 6.0 mi SSE 10.4 mph - N/A   Haze
10:53 AM 30.0 °F 20.5 °F 23.0 °F 75% 30.53 in 8.0 mi SSE 11.5 mph - N/A   Clear
11:53 AM 36.0 °F 27.1 °F 25.0 °F 64% 30.47 in 10.0 mi SSE 13.8 mph - N/A   Clear
12:53 PM 39.0 °F 31.0 °F 26.1 °F 60% 30.41 in 10.0 mi SE 13.8 mph 19.6 mph N/A   Clear
1:53 PM 41.0 °F 33.9 °F 27.0 °F 57% 30.37 in 10.0 mi SE 12.7 mph - N/A   Clear
2:53 PM 43.0 °F 36.8 °F 28.0 °F 56% 30.33 in 10.0 mi SE 11.5 mph - 0.01 in   Clear
3:53 PM 44.1 °F - 28.9 °F 55% 30.30 in 10.0 mi North - - N/A   Unknown
4:53 PM 42.1 °F 36.1 °F 28.9 °F 60% 30.29 in 10.0 mi SE 10.4 mph - N/A   Clear
5:53 PM 37.0 °F 29.8 °F 28.0 °F 70% 30.28 in 10.0 mi SSE 10.4 mph - N/A   Clear
6:53 PM 36.0 °F 29.6 °F 28.0 °F 73% 30.28 in 10.0 mi SSE 8.1 mph - N/A   Clear
7:53 PM 37.9 °F 30.9 °F 28.0 °F 68% 30.28 in 10.0 mi SSE 10.4 mph - N/A   Clear
8:53 PM 33.1 °F 26.1 °F 27.0 °F 78% 30.31 in 10.0 mi SE 8.1 mph - N/A   Clear
9:53 PM 33.1 °F 26.1 °F 27.0 °F 78% 30.32 in 10.0 mi SE 8.1 mph - 0.01 in   Clear
10:53 PM 32.0 °F 24.8 °F 26.1 °F 79% 30.32 in 10.0 mi SSE 8.1 mph - N/A   Clear
11:53 PM 30.9 °F 22.8 °F 26.1 °F 82% 30.31 in 10.0 mi SSE 9.2 mph - N/A   Clear